Weather History for Jacksonville NAS, FL

Change the Weather History Date:

Wednesday, December 5, 2012

  Actual Average Record
Temperature  
Mean Temperature 64 °F -  
Max Temperature 72 °F 66 °F 82 °F (1998)
Min Temperature 55 °F 50 °F 36 °F (2000)
Degree Days  
Heating Degree Days 2    
Growing Degree Days 14 (Base 50)    
Moisture  
Dew Point 56 °F    
Average Humidity 77    
Maximum Humidity 93    
Minimum Humidity 48    
Precipitation  
Precipitation 0.00 in - - ()
Sea Level Pressure  
Sea Level Pressure 30.15 in    
Wind  
Wind Speed 5 mph (NE)    
Max Wind Speed 9 mph    
Max Gust Speed -    
Visibility 10 miles    
Events Fog , Rain    
Averages and records for this station are not official NWS values.
T = Trace of Precipitation, MM = Missing Value Source: NWS Daily Summary

Daily Weather History Graph

Daily Weather History Graph

Search for Another Location

Airport:

Trip Planner

Search our weather history database for the weather conditions in past years. The results will help you decide how hot, cold, wet, or windy it might be!

Date:

Astronomy

Dec. 05, 2012 Rise Set
Actual Time 7:08 AM EST 5:26 PM EST
Civil Twilight 6:42 AM EST 5:52 PM EST
Nautical Twilight 6:12 AM EST 6:22 PM EST
Astronomical Twilight 5:43 AM EST 6:51 PM EST
Moon 11:53 PM EST (12/5) 11:50 AM EST (12/5)
Length of Visible Light 11h 09m
Length of Day
10h 17m
Waning Gibbous, 60% of the Moon is Illuminated
Dec 5
Waning Gibbous
Dec 6
Last Quarter
Dec 13
New
Dec 20
First Quarter
Dec 28
Full

Hourly Weather History & Observations

Time (EST) Temp. Dew Point Humidity Pressure Visibility Wind Dir Wind Speed Gust Speed Precip Events Conditions
12:53 AM 62.1 °F 57.9 °F 86% 30.22 in 10.0 mi North 6.9 mph - N/A   Mostly Cloudy
1:53 AM 61.0 °F 57.9 °F 90% 30.21 in 10.0 mi North 3.5 mph - N/A   Partly Cloudy
2:53 AM 59.0 °F 55.9 °F 90% 30.19 in 10.0 mi Calm Calm - N/A   Partly Cloudy
3:53 AM 59.0 °F 57.0 °F 93% 30.18 in 10.0 mi Calm Calm - N/A Fog Patches of Fog
4:53 AM 57.9 °F 54.0 °F 87% 30.17 in 10.0 mi Calm Calm - N/A Fog Patches of Fog
5:53 AM 57.0 °F 54.0 °F 89% 30.17 in 10.0 mi Calm Calm - N/A   Mostly Cloudy
6:53 AM 59.0 °F 57.0 °F 93% 30.18 in 10.0 mi NNW 3.5 mph - N/A   Mostly Cloudy
7:53 AM 55.9 °F 53.1 °F 90% 30.20 in 10.0 mi Calm Calm - N/A   Mostly Cloudy
9:53 AM 61.0 °F 55.9 °F 83% 30.22 in 9.0 mi NNW 6.9 mph - N/A   Mostly Cloudy
10:53 AM 64.9 °F 57.9 °F 78% 30.21 in 9.0 mi North 5.8 mph - N/A   Mostly Cloudy
11:53 AM 69.1 °F 55.0 °F 61% 30.19 in 10.0 mi North 5.8 mph - N/A   Mostly Cloudy
12:53 PM 72.0 °F 55.0 °F 55% 30.15 in 10.0 mi NNE 6.9 mph - N/A   Mostly Cloudy
1:53 PM 72.0 °F 52.0 °F 49% 30.12 in 10.0 mi NE 6.9 mph - N/A   Mostly Cloudy
2:53 PM 72.0 °F 51.1 °F 48% 30.10 in 10.0 mi ENE 9.2 mph - N/A   Mostly Cloudy
3:53 PM 71.1 °F 51.1 °F 49% 30.10 in 10.0 mi ENE 9.2 mph - N/A   Mostly Cloudy
4:53 PM 70.0 °F 51.1 °F 51% 30.09 in 10.0 mi ENE 6.9 mph - N/A   Mostly Cloudy
5:53 PM 68.0 °F 55.0 °F 63% 30.11 in 10.0 mi NE 5.8 mph - N/A   Overcast
6:53 PM 66.0 °F 57.0 °F 73% 30.11 in 10.0 mi East 4.6 mph - N/A   Overcast
7:53 PM 64.9 °F 59.0 °F 81% 30.12 in 10.0 mi East 4.6 mph - N/A   Overcast
8:22 PM 64.4 °F 59.0 °F 83% 30.14 in 10.0 mi East 9.2 mph - 0.00 in Rain Light Rain
8:53 PM 63.0 °F 60.1 °F 90% 30.13 in 4.0 mi NE 8.1 mph - 0.00 in Rain Light Rain
9:53 PM 62.1 °F 60.1 °F 93% 30.12 in 6.0 mi NE 3.5 mph - 0.00 in   Overcast
10:53 PM 63.0 °F 60.1 °F 90% 30.12 in 9.0 mi NNE 5.8 mph - N/A   Overcast
11:53 PM 62.1 °F 59.0 °F 90% 30.10 in 10.0 mi North 8.1 mph - N/A   Mostly Cloudy